Location: Arcusa
(42.3167°N, 0.0833°W)
Time: 06:10:32
(UTC+00:00)

ATLAS 3B R/B - Pass Details

Date: 25 January 2020
Orbit: 1020 x 1175 km, 63.8° (Epoch: 20 February)

Event Time Altitude Azimuth Distance (km) Brightness Sun altitude
Exits shadow 03:53:10 23° 17° (NNE) 2,075 4.3 -38.3°
Maximum altitude 03:54:33 25° 35° (NE) 2,014 4.4 -38.0°
Drops below altitude 10° 04:00:01 10° 88° (E) 2,920 5.7 -37.0°
Sets 04:03:18 0° 101° (ESE) 3,901 6.5 -36.4°
